GW2634 Weather Reports


time (UTC)temp
F
wind
direction
speed
knots
gust
knots
rain 1hr
in
rain 24hr
in
rain mn
in
humidity
%
barometer
mb
20260506134542 50 176 3.5 7.0 0.00 0.00 0.00 89 1020.2
20260506133052 50 136 2.6 6.1 0.00 0.00 0.00 89 1019.9
20260506131549 51 210 2.6 7.8 0.00 0.00 0.00 88 1019.9
20260506130049 51 235 4.3 10.4 0.00 0.00 0.00 87 1019.9
20260506124545 51 205 5.2 10.4 0.00 0.00 0.00 87 1019.6
20260506123044 51 210 6.1 10.4 0.00 0.00 0.00 88 1019.9
20260506121543 51 190 4.3 9.6 0.00 0.00 0.00 88 1019.8
20260506120046 51 213 5.2 11.3 0.00 0.00 0.00 88 1019.4
20260506114543 51 231 6.1 10.4 0.00 0.00 0.00 88 1019.3
20260506113048 51 236 4.3 11.3 0.00 0.00 0.00 88 1019.3
20260506111542 51 259 6.1 10.4 0.00 0.00 0.00 88 1019.4
20260506110041 51 255 5.2 10.4 0.00 0.00 0.00 89 1019.1
20260506104556 51 224 5.2 11.3 0.00 0.00 0.00 89 1019.0
20260506103042 51 218 4.3 11.3 0.00 0.00 0.00 89 1018.9
20260506101550 51 236 3.5 7.8 0.00 0.00 0.00 89 1018.7
20260506100042 51 205 3.5 7.8 0.00 0.00 0.00 90 1018.6
20260506094543 51 207 3.5 9.6 0.00 0.00 0.00 91 1018.6
20260506093041 50 178 3.5 7.0 0.00 0.00 0.00 92 1018.5
20260506091542 50 201 3.5 7.0 0.00 0.00 0.00 92 1018.5
20260506090041 50 200 3.5 7.8 0.00 0.00 0.00 92 1018.5
20260506084545 50 200 3.5 7.0 0.00 0.00 0.00 92 1018.5
20260506083219 50 160 3.5 7.0 0.00 0.00 0.00 92 1018.5
20260506081541 50 74 2.6 7.0 0.00 0.00 0.00 92 1018.5
20260506073050 50 192 3.5 7.8 0.00 0.00 0.00 92 1018.1
20260506071545 50 176 3.5 6.1 0.00 0.00 0.00 92 1018.1
20260506061542 50 154 3.5 7.8 0.00 0.00 0.00 91 1017.7
20260506044542 51 186 4.3 7.8 0.00 0.00 0.00 89 1017.1
20260506043041 52 161 4.3 7.0 0.00 0.00 0.00 89 1017.0
20260506041545 52 168 4.3 7.8 0.00 0.00 0.00 89 1016.7
20260506040047 52 159 3.5 7.0 0.00 0.00 0.00 88 1016.7
20260506034543 52 195 3.5 6.1 0.00 0.00 0.00 87 1016.4
20260506033043 53 152 4.3 7.0 0.00 0.00 0.00 86 1016.4
20260506031542 54 203 5.2 7.8 0.00 0.00 0.00 84 1016.4
20260506030047 54 174 3.5 7.8 0.00 0.00 0.00 83 1016.4
20260506024545 55 181 3.5 7.0 0.00 0.00 0.00 81 1016.5
20260506023055 56 155 4.3 7.0 0.00 0.00 0.00 81 1016.5
20260506021552 56 174 3.5 7.0 0.00 0.00 0.00 80 1016.6
20260506020042 57 180 3.5 7.0 0.00 0.00 0.00 81 1016.6
20260506014548 57 159 4.3 7.0 0.00 0.00 0.00 80 1016.7
20260506013048 58 167 2.6 7.0 0.00 0.00 0.00 78 1016.7
20260506011543 58 172 3.5 7.8 0.00 0.00 0.00 78 1016.7
20260506010054 58 151 3.5 6.1 0.00 0.00 0.00 77 1016.8
20260506004547 58 155 3.5 6.1 0.00 0.00 0.00 78 1016.7
20260506003041 58 169 3.5 7.8 0.00 0.00 0.00 79 1016.7
20260506001546 58 192 4.3 7.8 0.00 0.00 0.00 77 1016.8
20260506000048 59 130 3.5 7.0 0.00 0.00 0.00 78 1017.0
20260505234603 59 208 2.6 6.1 0.00 0.00 0.00 80 1017.0
20260505233043 58 145 4.3 6.1 0.00 0.00 0.00 79 1017.2
20260505231542 58 162 3.5 6.1 0.00 0.00 0.00 79 1017.3
20260505230041 58 146 3.5 7.8 0.00 0.00 0.00 79 1017.5
20260505224542 57 139 2.6 6.1 0.00 0.00 0.00 80 1017.4
20260505223046 57 203 2.6 6.1 0.00 0.00 0.00 80 1017.4
20260505221545 57 165 3.5 7.0 0.00 0.00 0.00 81 1017.7
20260505220045 57 204 2.6 6.1 0.00 0.00 0.00 83 1017.7
20260505214601 56 187 4.3 7.8 0.00 0.00 0.00 83 1017.7
20260505213058 56 177 3.5 7.0 0.00 0.00 0.00 84 1017.7
20260505211542 56 197 2.6 5.2 0.00 0.00 0.00 84 1017.8
20260505210042 55 160 3.5 6.1 0.00 0.00 0.00 85 1017.9
20260505204553 56 132 2.6 5.2 0.00 0.00 0.00 84 1018.0
20260505203047 55 191 2.6 4.3 0.00 0.00 0.00 86 1018.0
20260505201541 55 178 1.7 4.3 0.00 0.00 0.00 86 1018.0
20260505200100 55 210 2.6 5.2 0.00 0.00 0.00 87 1017.9
20260505194548 55 219 1.7 5.2 0.00 0.00 0.00 88 1018.0
20260505193048 54 160 1.7 5.2 0.00 0.00 0.00 89 1018.0
20260505191542 54 212 2.6 4.3 0.00 0.00 0.00 89 1018.0
20260505190042 54 240 0.9 3.5 0.00 0.00 0.00 89 1017.9
20260505184541 54 216 0.9 3.5 0.00 0.00 0.00 90 1017.8
20260505183047 53 221 1.7 3.5 0.00 0.00 0.00 90 1017.7
20260505181543 53 141 1.7 3.5 0.00 0.00 0.00 90 1017.8
20260505180103 53 0 0.9 2.6 0.00 0.00 0.00 91 1017.7
20260505174558 53 220 0.9 2.6 0.00 0.00 0.00 92 1017.7
20260505173045 52 233 0.0 0.9 0.00 0.00 0.00 93 1017.6
20260505171547 52 198 0.0 0.9 0.00 0.00 0.00 94 1017.5
20260505170048 52 165 0.0 1.7 0.00 0.00 0.00 94 1017.4
20260505164547 51 229 0.0 1.7 0.00 0.00 0.00 95 1017.5
20260505163042 51 195 0.0 1.7 0.00 0.00 0.00 95 1017.4
20260505161541 51 138 0.0 1.7 0.00 0.00 0.00 95 1017.5
20260505153045 51 158 0.9 2.6 0.00 0.00 0.00 95 1017.3
20260505151543 50 171 0.9 3.5 0.00 0.00 0.00 95 1017.2